#timestamp,LO_Frequency,Hit,StdDev 
1561950015.9,286046986.1,N
1561950035.7,286046983.8,N
1561950055.6,286046985.8,N
1561950075.4,286046986.7,N
1561950095.2,286046986.1,N
1561950115.1,286046991.1,N
1561950116.0,286046991.1,N
1561950135.8,286046989.9,N
1561950155.6,286046988.4,N
1561950175.5,286046987.7,N
1561950225.4,286046987.2,E
1561950235.3,286046992.5,N
1561950255.1,286047000.8,P
1561950275.8,286047000.3,N
1561950295.7,286047004.4,N
1561950315.5,286047005.2,N
1561950335.4,286047008.6,N
1561950355.2,286047009.5,N
1561950375.0,286047010.8,N
1561950375.9,286047010.8,N
1561950395.8,286047009.3,N
1561950415.6,286047011.2,N
1561950435.5,286047013.9,N
1561950455.3,286047012.0,N
1561950475.1,286047009.4,N
1561950495.9,286047012.8,N
1561950515.7,286047015.3,N
1561950535.5,286047015.3,N
1561950555.4,286047015.0,N
1561950575.2,286047017.1,N
1561950595.1,286047012.5,N
1561950596.0,286047012.5,N
1561950615.8,286047015.6,N
1561950635.6,286047013.3,N
1561950655.5,286047010.9,N
1561950675.3,286047013.2,N
1561950695.2,286047015.4,N
1561950715.9,286047012.9,N
1561950735.7,286047013.7,N
1561950755.6,286047005.0,N
1561950775.4,286047007.5,N
1561950795.2,286047005.7,N
1561950815.1,286047004.0,N
1561950816.0,286047004.0,N
1561950835.8,286047003.4,N
1561950855.7,286047002.2,N
1561950875.5,286047002.2,N
1561950895.3,286047007.5,N
1561950915.2,286047007.7,N
1561950935.0,286047013.9,Y
1561950935.9,286047013.9,P
1561950955.8,286047004.5,N
1561950975.6,286047010.8,N
1561950995.4,286047009.4,N
1561951015.3,286047011.5,Y
1561951035.1,286047003.4,P
1561951055.8,286047006.5,N
1561951075.7,286047008.6,P
1561951095.5,286047009.7,Y
1561951115.4,286047004.1,P
1561951135.2,286047007.5,P
1561951155.0,286047006.9,P
1561951155.9,286047006.9,Y
1561951175.8,286047001.4,P
1561951195.6,286047003.3,N
1561951215.5,286047008.5,P
1561951235.3,286047013.1,Y
1561951255.1,286047012.2,P
1561951275.9,286047014.7,P
1561951295.7,286047018.8,P
1561951315.6,286047017.7,Y
1561951335.4,286047005.0,P
1561951355.2,286047006.9,N
1561951375.1,286047008.9,N
1561951376.0,286047008.9,Y
1561951395.8,286047001.1,P
1561951415.6,286046999.1,N
1561951435.5,286046997.1,N
1561951455.3,286046999.4,N
1561951475.2,286046996.0,N
1561951495.9,286046994.5,N
1561951515.7,286046992.7,N
1561951535.6,286046987.8,N
1561951555.4,286046983.8,N
1561951575.2,286046981.3,N
1561951595.1,286046981.0,N
1561951596.0,286046981.0,N
1561951615.8,286046982.6,N
1561951635.7,286046980.5,N
1561951655.5,286046982.6,N
1561951675.3,286046981.9,N
1561951695.2,286046977.4,N
1561951715.0,286046978.0,N
1561951715.9,286046978.0,N
1561951735.8,286046975.0,N
1561951755.6,286046971.3,Y
1561951775.4,286046983.0,P
1561951795.3,286046981.9,P
1561951815.1,286046981.3,P
1561951835.9,286046980.5,Y
1561951855.7,286046997.6,P
1561951875.5,286046996.8,N
1561951895.4,286046995.8,N
1561951915.2,286046995.0,N
1561951935.0,286046996.9,N
1561951935.9,286046996.9,N
1561951955.8,286047001.9,N
1561951975.6,286047002.9,N
1561951995.5,286047006.1,N
1561952015.3,286047007.1,N
1561952035.1,286047005.7,N
1561952055.9,286047004.6,N
1561952075.7,286047006.5,N
1561952095.5,286047006.0,N
1561952115.4,286047002.7,N
1561952135.2,286046998.8,N
1561952155.1,286046999.0,N
1561952156.0,286046999.0,N
1561952175.8,286046997.5,N
1561952195.6,286046995.8,N
1561952215.5,286046995.0,N
1561952235.3,286046996.8,N
1561952255.2,286046999.1,N
1561952275.9,286046996.5,N
1561952295.7,286047001.1,N
1561952315.6,286047000.6,N
1561952335.4,286046999.6,N
1561952355.3,286046998.9,N
1561952375.1,286046996.5,N
1561952376.0,286046996.5,N
1561952395.8,286046995.1,N
1561952415.7,286046994.6,N
1561952435.5,286046991.7,N
1561952455.3,286046994.0,N
1561952475.2,286046992.4,N
1561952495.0,286046991.7,N
1561952495.9,286046991.7,N
1561952515.8,286046994.8,N
1561952535.6,286046993.1,N
1561952555.4,286046991.1,N
1561952575.3,286046988.9,N
1561952595.1,286046990.0,N
1561952615.9,286046988.9,N
1561952635.7,286046989.5,N
1561952655.5,286046988.8,N
1561952675.4,286046990.9,N
1561952695.2,286046992.3,N
1561952715.0,286046998.8,N
1561952715.9,286046998.8,N
1561952735.8,286047002.6,N
1561952755.6,286047001.4,N
1561952775.5,286047001.8,N
1561952795.3,286047002.0,N
1561952815.1,286047000.4,N
1561952835.9,286047001.3,N
1561952855.7,286047001.8,N
1561952875.5,286047005.5,N
1561952895.4,286047008.4,N
1561952915.2,286047008.8,N
1561952935.1,286047008.0,N
1561952936.0,286047008.0,N
1561952955.8,286047008.4,N
1561952975.6,286047007.9,N
1561952995.5,286047008.4,N
1561953015.3,286047014.0,N
1561953035.1,286047013.7,N
1561953055.9,286047010.6,N
1561953075.7,286047012.1,N
1561953095.6,286047006.3,N
1561953115.4,286047010.5,N
1561953135.2,286047009.9,N
1561953155.1,286047009.2,N
1561953156.0,286047009.2,N
1561953175.8,286047005.9,N
1561953195.6,286047003.8,N
1561953215.5,286047002.9,N
1561953235.3,286047004.6,N
1561953255.2,286047003.3,N
1561953275.9,286047005.2,N
1561953295.7,286047007.1,N
1561953315.6,286047004.5,N
1561953335.4,286047005.7,N
1561953355.2,286047005.6,N
1561953375.1,286047003.0,N
1561953376.0,286047003.0,N
1561953395.8,286047004.2,N
1561953415.7,286046998.1,N
1561953435.5,286046999.4,N
1561953455.3,286046995.9,N
1561953475.2,286046994.7,N
1561953495.0,286046993.3,N
1561953495.9,286046993.3,N
1561953515.8,286046996.2,N
1561953535.6,286046996.3,N
1561953555.4,286046997.3,N
1561953575.3,286047001.2,N
1561953595.1,286046998.1,N
